Flag for Greenland Weather past 2 weeks in Upernavik, Greenland

Now
52 °F

Cool.


Feels Like: 51 °F
Forecast: 43 / 48 °F
Wind: 5 mph from Northwest

Location: Jacobshavn Lufthavn

Current Time: Jul 4, 2015 at 10:41:53 AM

Latest Report: Jul 4, 2015 at 10:00 AM


Visibility: 22 mi

Pressure: 30.22 "Hg

Humidity: 45%

Dew point: 31 °F

Location of UpernavikLocation

Historic Weather in Upernavik — Graph

°F

Upernavik temperature yesterday

Maximum temperature yesterday: 54 °F (at 7:00 PM)
Minimum temperature yesterday: 43 °F (at 2:00 AM)
Average temperature yesterday: 49 °F

Past Weeks' High & Low Weather Summary

 TemperatureHumidityPressure
High65 °F (Jun 28, 3:00 PM)91% (Jun 20, 4:00 AM)30.24 "Hg (Jun 20, 4:00 AM)
Low35 °F (Jun 20, 2:00 AM)21% (Jul 1, 11:00 PM)29.71 "Hg (Jun 19, 9:00 AM)
Average49 °F53%30.02 "Hg
* Reported Jun 19 9:00 AM — Jul 4 9:00 AM, Upernavik, Weather by CustomWeather, © 2015

Note: Actual official high and low records may vary slightly from our data, if they occured in-between our weather recording intervals... More about our weather records

Advertising

Upernavik weather history for previous 24 hours

 ConditionsComfort  
Time TempWeatherWind HumidityBarometerVisibility
9:00 AM
Sat, Jul 4
50 °FCool.3 mph49%30.23 "Hg31 mi
8:00 AM49 °FCool.2 mph52%30.23 "Hg28 mi
7:00 AM47 °FCool.3 mph54%30.24 "Hg19 mi
6:00 AM48 °FCool.2 mph54%30.23 "Hg28 mi
5:00 AM48 °FCool.1 mph59%30.23 "Hg31 mi
4:00 AM48 °FCool.3 mph62%30.23 "Hg31 mi
3:00 AM47 °FCool.2 mph57%30.22 "Hg31 mi
2:00 AM48 °FCool.No wind59%30.21 "Hg31 mi
1:00 AM48 °FCool.1 mph57%30.21 "Hg28 mi
12:00 AM49 °FCool.1 mph57%30.20 "Hg31 mi
11:00 PM
Fri, Jul 3
51 °FCool.No wind55%30.20 "Hg31 mi
10:00 PM51 °FCool.2 mph57%30.19 "Hg28 mi
9:00 PM52 °FCool.3 mph55%30.19 "Hg28 mi
8:00 PM53 °FCool.5 mph53%30.19 "Hg22 mi
7:00 PM54 °FCool.5 mph51%30.18 "Hg18 mi
6:00 PM52 °FCool.5 mph57%30.19 "Hg14 mi
5:00 PM53 °FCool.5 mph53%30.19 "Hg19 mi
4:00 PM53 °FCool.6 mph53%30.19 "Hg12 mi
3:00 PM51 °FCool.6 mph60%30.19 "Hg14 mi
2:00 PM50 °FCool.6 mph66%30.20 "Hg19 mi
1:00 PM50 °FCool.6 mph62%30.20 "Hg16 mi
12:00 PM48 °FCool.7 mph74%30.21 "Hg11 mi
11:00 AM48 °FCool.8 mph71%30.21 "Hg17 mi
10:00 AM49 °FCool.6 mph59%30.22 "Hg22 mi
Weather by CustomWeather, © 2015

See weather overviewHow to use our weather pages